Regional Weather Roundup
Issued by NWS

Home | Current Version | Previous Version | Text Only | Print | Product List | Glossary Off
Versions: 1 2 3 4 5 6 7 8 9 10 11 12 13 14 15 16 17 18 19 20 21 22 23 24 25 26 27 28 29 30 31 32 33 34 35 36 37 38 39 40 41 42 43 44 45 46 47 48 49 50

000
ASUS43 KDTX 041601
RWRMI
MICHIGAN HOURLY REGIONAL WEATHER ROUNDUP
NATIONAL WEATHER SERVICE DETROIT/PONTIAC MI
1200 PM EDT SAT JUL 04 2015

NOTE: "FAIR" INDICATES FEW OR NO CLOUDS BELOW 12,000 FEET WITH NO
SIGNIFICANT WEATHER AND/OR OBSTRUCTION TO VISIBILITY.

MIZ047>049-052>055-059>063-066>070-074>076-081>083-041700-
SOUTHEAST LOWER MICHIGAN

CITY           SKY/WX    TMP DP  RH WIND       PRES   REMARKS
ADRIAN         SUNNY     75  56  51 E6        30.01S
ALMA           SUNNY     76  54  46 SW6       29.99R
ANN ARBOR      MOSUNNY   75  53  46 VRB5      30.00S
BAD AXE        SUNNY     74  54  48 W7        29.98S
CARO           SUNNY     75  57  54 CALM      29.98S
DETROIT CITY   SUNNY     75  46  35 N5        29.99S
DETROIT        SUNNY     76  51  41 N6        30.00S
FLINT          SUNNY     77  53  43 W6        30.00R
GROSSE ILE     SUNNY     73  52  46 E5        29.98S
HILLSDALE      SUNNY     73  56  54 CALM      30.02R
HOWELL         SUNNY     74  52  45 N3        30.00S

CITY           SKY/WX    TMP DP  RH WIND       PRES   REMARKS
JACKSON        SUNNY     73  57  57 VRB5      30.01S
LAMBERTVILLE   SUNNY     76  53  45 NW5       30.01R
LANSING        SUNNY     74  57  55 NW5       30.01S
LAPEER         FAIR      73  51  44 N5        30.00S
MASON          SUNNY     72  55  56 W3        30.01R
MONROE         SUNNY     74  53  47 NE3       29.99S
MT. CLEMENS    MOSUNNY   73  55  52 VRB3      29.98R
PONTIAC        MOSUNNY   74  54  49 NW6       29.99S
PORT HOPE        N/A     75  53  46 NW9       29.96R
PORT HURON     SUNNY     72  54  53 CALM      29.99S
TRI CITIES     SUNNY     76  55  48 W8        29.98S
MIDLAND        FAIR      76  56  49 SW3       29.97S
TROY           SUNNY     74  50  42 CALM      30.01S
SAGINAW HB     SUNNY     77  54  44 W3        29.98S
$$
MIZ043>046-050>051-056>058-064>065-071>073-077>080-041700-
SOUTHWEST LOWER MICHIGAN

CITY           SKY/WX    TMP DP  RH WIND       PRES   REMARKS
BATTLE CREEK   SUNNY     73  56  54 CALM      30.02S
BENTON HARBOR  SUNNY     74  56  53 CALM      30.01R
BIG RAPIDS     SUNNY     76  55  47 W7        29.98R
COLDWATER      SUNNY     72  55  55 CALM      30.01S
FREMONT        FAIR      75  60  59 SW3       29.98S
HOLLAND        SUNNY     75  56  51 W6        30.01R
GRAND RAPIDS   PTSUNNY   74  54  49 VRB3      30.00S
IONIA          FAIR      74  53  49 NW3       30.00R
KALAMAZOO      SUNNY     75  53  46 N6        30.02R
LUDINGTON      SUNNY     71  61  70 SW7       29.98S
MARSHALL       SUNNY     74  56  53 CALM      30.01R
MOUNT PLEASANT SUNNY     76  56  51 NW7       29.98R
MUSKEGON       PTSUNNY   72  58  61 SW7       30.00R
SOUTH HAVEN    SUNNY     73  56  54 W6        30.01R
$$
MIZ016>042-041700-
NORTHERN LOWER MICHIGAN

CITY           SKY/WX    TMP DP  RH WIND       PRES   REMARKS
ALPENA         SUNNY     77  56  48 N6        29.96R
BEAVER ISLAND  SUNNY     70  58  66 SW5       29.98S
BELLAIRE       SUNNY     74  56  53 S3        29.97S
CADILLAC       SUNNY     76  60  56 SW7       29.98S
CHARLEVOIX     SUNNY     68  57  67 NW6       30.00S
FRANKFORT      SUNNY     73  55  53 W5        29.97S
GAYLORD        SUNNY     73  55  53 CALM      29.98R
GRAYLING       SUNNY     76  58  53 NW7       29.98S
HARBOR SPRINGS SUNNY     64  57  76 SW6       29.97S
HOUGHTON LAKE  SUNNY     74  56  53 W6        29.98S
MANISTEE       SUNNY     72  59  64 W6        29.98S
OSCODA         CLOUDY    77  56  49 E7        29.95R
PELLSTON       SUNNY     75  58  55 VRB7      29.96S
ROGERS CITY    SUNNY     66  58  75 N7        29.97S
TRAVERSE CITY  PTSUNNY   73  57  57 N7        29.96R
$$
MIZ007>008-015-041700-
EASTERN UPPER MICHIGAN

CITY           SKY/WX    TMP DP  RH WIND       PRES   REMARKS
KINROSS        PTSUNNY   63  57  82 NW9       29.98R
MACKINAC ISLAN SUNNY     66  58  74 SW3       29.97S
NEWBERRY       SUNNY     64  60  85 NE8       29.98S
S. S. MARIE    CLOUDY    63  57  81 SW5       29.97R
$$
MIZ004>006-011>014-085-041700-
CENTRAL UPPER MICHIGAN

CITY           SKY/WX    TMP DP  RH WIND       PRES   REMARKS
MANISTIQUE     SUNNY     73  59  60 NW6       29.97R
ESCANABA       SUNNY     73  57  56 CALM      29.96S
MENOMINEE      SUNNY     70  57  64 E7        29.98R
SAWYER-GWINN   SUNNY     66  55  68 NE10      30.00S
$$
MIZ001>003-009>011-084-041700-
WESTERN UPPER MICHIGAN

CITY           SKY/WX    TMP DP  RH WIND       PRES   REMARKS
IRON MOUNTAIN  SUNNY     75  60  59 NW6       29.98R
HOUGHTON       PTSUNNY   70  56  61 VRB6      29.99S
COPPER HARBOR    N/A     54  50  86 CALM      29.99R
IRONWOOD       SUNNY     73  61  64 E5        29.94F
$$

ABBREVIATIONS USED IN REMARKS
   TC - TEMPERATURE IN CELSIUS
  WCI - WIND CHILL INDEX
   HX - HEAT INDEX
  VSB - VISIBILITY



USA.gov is the U.S. government's official web portal to all federal, state and local government web resources and services.